Home > Weather > Yakutsk > Past weeks

Flag for Russia Weather for the Past 2 Weeks in Yakutsk, Russia

Now
-33 °F

Light snow. Clear.


Feels Like: -54 °F
Forecast: -44 / -28 °F
Wind: 8 mph from North

Location: Jakutsk

Current Time: Feb 15, 2016 at 9:10:33 AM

Latest Report: Feb 15, 2016 at 8:00 AM


Visibility: N/A

Pressure: 29.68 "Hg

Humidity: 66%

Dew point: -40 °F

Location of YakutskLocation

Historic Weather in Yakutsk — Graph

°F

Yakutsk Temperature Yesterday

Maximum temperature yesterday: -20 °F (at 3:00 PM)
Minimum temperature yesterday: -31 °F (at 2:30 AM)
Average temperature yesterday: -25 °F

High & Low Weather Summary for the Past Weeks

 TemperatureHumidityPressure
High-20 °F (Feb 14, 3:00 PM)75% (Feb 13, 12:30 PM)30.42 "Hg (Feb 13, 12:30 PM)
Low-56 °F (Feb 6, 5:30 AM)48% (Feb 6, 6:30 AM)29.65 "Hg (Feb 15, 5:00 AM)
Average-39 °F63%30.10 "Hg
* Reported Jan 31 7:00 AM — Feb 15 7:30 AM, Yakutsk, Weather by CustomWeather, © 2016

Note: Actual official high and low records may vary slightly from our data, if they occured in-between our weather recording intervals... More about our weather records

Advertising

Yakutsk Weather History for the Previous 24 Hours

 ConditionsComfort  
Time TempWeatherWind HumidityBarometerVisibility
7:30 AM
Mon, Feb 15
-33 °FLight snow. Clear.8 mph74%29.68 "HgN/A
7:00 AM-31 °FLight snow. Clear.8 mph67%29.68 "HgN/A
6:30 AM-31 °FClear.8 mph67%29.65 "Hg10 mi
5:30 AM-29 °FLight snow. Clear.8 mph67%29.65 "HgN/A
5:00 AM-29 °FLight snow. Clear.8 mph74%29.65 "HgN/A
4:30 AM-27 °FLight snow. Clear.6 mph67%29.68 "HgN/A
4:00 AM-27 °FLight snow. Clear.8 mph67%29.68 "HgN/A
3:30 AM-27 °FLight snow. Clear.8 mph67%29.68 "HgN/A
3:00 AM-27 °FLight snow. Clear.8 mph67%29.68 "HgN/A
2:30 AM-27 °FLight snow. Clear.8 mph74%29.68 "HgN/A
2:00 AM-27 °FLight snow. Clear.6 mph74%29.68 "HgN/A
1:30 AM-27 °FLight snow. Clear.3 mph67%29.71 "HgN/A
1:00 AM-27 °FLight snow. Clear.8 mph74%29.71 "HgN/A
12:30 AM-26 °FLight snow. Clear.8 mph67%29.71 "HgN/A
12:00 AM-26 °FLight snow. Clear.6 mph67%29.71 "HgN/A
11:30 PM
Sun, Feb 14
-26 °FLight snow. Clear.3 mph75%29.74 "HgN/A
11:00 PM-24 °FLight snow. Clear.8 mph75%29.74 "HgN/A
10:30 PM-24 °FLight snow. Clear.6 mph75%29.74 "HgN/A
10:00 PM-22 °FLight snow. Clear.3 mph68%29.74 "HgN/A
9:30 PM-22 °FLight snow. Clear.3 mph75%29.77 "HgN/A
9:00 PM-20 °FLight snow. Clear.3 mph68%29.77 "HgN/A
8:30 PM-20 °FLight snow. Clear.6 mph68%29.80 "HgN/A
8:00 PM-20 °FLight snow. Clear.3 mph68%29.80 "HgN/A
7:30 PM-20 °FLight snow. Clear.3 mph75%29.80 "HgN/A
7:00 PM-20 °FLight snow. Clear.3 mph75%29.83 "HgN/A
6:30 PM-20 °FLight snow. Clear.3 mph75%29.83 "HgN/A
6:00 PM-20 °FLight snow. Clear.3 mph75%29.83 "HgN/A
5:30 PM-20 °FLight snow. Clear.3 mph75%29.86 "HgN/A
5:00 PM-20 °FLight snow. Clear.3 mph75%29.86 "HgN/A
4:30 PM-20 °FLight snow. Clear.1 mph75%29.86 "Hg3 mi
4:00 PM-20 °FLight snow. Clear.3 mph68%29.86 "Hg3 mi
3:30 PM-20 °FLight snow. Clear.3 mph68%29.86 "Hg3 mi
3:00 PM-20 °FLight snow. Clear.3 mph68%29.89 "Hg3 mi
2:30 PM-22 °FLight snow. Clear.3 mph75%29.89 "Hg3 mi
2:00 PM-22 °FLight snow. Clear.1 mph75%29.89 "Hg3 mi
1:30 PM-22 °FLight snow. Clear.1 mph68%29.92 "Hg3 mi
1:00 PM-24 °FLight snow. Clear.3 mph75%29.92 "Hg3 mi
12:30 PM-24 °FLight snow. Clear.3 mph75%29.95 "Hg3 mi
12:00 PM-24 °FLight snow. Clear.1 mph68%29.95 "HgN/A
11:30 AM-26 °FLight snow. Clear.1 mph75%29.98 "HgN/A
11:00 AM-26 °FLight snow. Clear.1 mph67%30.01 "HgN/A
10:30 AM-27 °FLight snow. Clear.1 mph74%30.01 "HgN/A
10:00 AM-27 °FLight snow. Clear.1 mph74%30.04 "Hg3 mi
9:30 AM-29 °FLight snow. Clear.1 mph74%30.04 "Hg3 mi
9:00 AM-29 °FLight snow. Clear.1 mph67%30.04 "Hg3 mi
Weather by CustomWeather, © 2016

See weather overviewHow to use our weather pages